Location: Fours
(44.3167°N, 6.7000°E)
Time: 20:12:58
(UTC+00:00)

Cosmos 2227 - Pass Details

Date: 03 June 2022
Orbit: 832 x 863 km, 71.0° (Epoch: 03 July)

Event Time Altitude Azimuth Distance (km) Brightness Sun altitude
Rises 20:55:41 0° 323° (NW) 3,448 9.4 -14.4°
Reaches altitude 10° 20:58:36 10° 309° (NW) 2,508 7.9 -14.7°
Maximum altitude 21:03:01 23° 259° (W) 1,747 6.1 -15.2°
Drops below altitude 10° 21:07:25 10° 209° (SSW) 2,494 6.4 -15.6°
Enters shadow 21:08:49 - 201° (SSW) 2,920 6.7 -15.7°
